Wind_Speed
9 5 5 6 6 5 5 6 8 7 9 10 6 2 3 2 5 7 7 10 11 8 8 10 8 9 12 10 10 11 10 11 12 11 10 10 10 9 10 10 10 11 11 15 19 19 19 20 20 19 19 19 18 17 16 15 14 14 13 11 12 13 12 13 14 14 15 12 11 12 11 9 9 9 9 9 9 9 9 9 7 7 7 9 10 9
9 6 5 5 1 5 5 5 6 8 11 10 4 2 1 2 5 6 8 8 10 8 6 10 10 9 11 10 11 11 11 11 12 12 11 11 10 9 10 11 11 10 10 14 17 18 20 19 20 19 18 19 17 15 14 14 14 14 12 12 14 14 13 14 16 16 16 15 12 11 12 11 9 9 9 10 10 8 9 8 8 8 8 9 10 9
9 5 3 5 5 8 8 8 8 10 9 7 5 7 5 5 7 6 8 15 11 8 6 10 9 6 8 10 11 12 11 10 11 10 10 11 11 10 10 10 11 12 10 12 14 17 20 20 20 18 17 18 18 16 14 13 14 15 12 11 15 14 13 14 14 13 15 15 13 11 11 12 10 9 10 11 10 8 9 9 9 8 9 9 9 9
5 4 3 7 7 2 5 5 8 12 5 3 8 8 4 6 6 6 12 16 9 6 6 8 5 4 4 8 10 11 11 10 10 10 10 10 10 10 11 10 11 13 12 13 13 14 18 20 20 18 17 18 19 17 16 16 15 16 14 12 14 14 14 14 11 10 14 13 11 11 10 10 10 10 10 9 8 7 8 9 9 8 9 9 9 9
5 8 10 10 11 12 11 10 13 11 5 8 10 6 3 7 8 4 8 10 7 6 6 6 4 3 5 7 8 10 10 9 11 11 11 11 10 10 11 11 12 14 13 13 14 14 16 19 19 19 18 19 20 18 16 17 16 16 17 13 15 16 14 15 12 9 13 13 12 12 11 10 10 10 9 9 7 6 7 9 9 8 8 8 9 8
4 9 12 13 13 14 11 10 14 11 5 5 8 6 6 8 9 9 8 8 5 5 6 6 5 4 5 7 6 7 9 10 11 12 13 12 11 11 11 11 12 13 13 13 14 14 16 18 19 19 19 19 20 18 17 18 16 17 18 15 16 16 13 15 15 11 12 13 12 13 12 10 10 10 9 8 8 6 7 9 8 7 7 7 8 8
1 4 7 10 10 10 7 6 10 10 3 2 6 7 10 11 9 8 10 9 4 3 3 3 4 1 3 6 7 7 10 11 11 12 14 13 13 12 10 11 12 12 13 13 13 14 16 18 18 18 19 19 19 18 19 20 17 18 19 16 16 16 14 14 16 16 13 12 11 12 12 12 11 11 9 7 8 8 9 8 6 6 6 6 6 6
3 6 7 9 9 8 7 6 9 9 5 5 8 10 12 11 8 8 10 5 3 1 1 2 5 3 1 5 8 10 12 11 12 13 13 13 13 14 13 12 12 13 14 13 13 14 15 17 18 18 19 19 19 18 19 21 19 18 19 18 17 17 16 15 16 17 15 12 12 13 13 13 11 10 9 8 8 9 9 6 5 7 6 5 5 5
7 10 9 11 10 7 6 5 8 9 8 9 10 11 13 10 7 7 5 2 3 1 1 3 5 4 2 2 7 11 12 12 14 15 14 14 15 14 14 14 14 14 15 14 14 15 15 17 19 20 20 20 20 20 19 21 20 19 20 19 18 17 19 18 17 17 16 15 14 14 14 14 12 11 10 9 8 8 7 6 4 6 5 5 5 4
4 7 10 12 9 5 5 7 10 10 9 9 9 9 11 3 2 0 3 4 3 2 2 4 7 6 1 1 5 8 9 12 13 13 13 14 15 15 14 15 15 14 14 14 15 15 16 20 20 20 20 20 21 19 19 20 20 20 21 20 19 18 18 19 19 18 17 17 16 15 14 14 13 12 12 11 10 9 8 6 4 3 4 4 4 4
9 11 12 8 5 5 7 9 11 11 12 11 8 6 2 7 6 3 3 4 1 0 4 7 9 7 3 4 7 7 8 11 11 10 13 14 15 16 15 14 15 14 13 13 14 15 18 21 22 21 20 20 20 20 22 22 20 20 21 22 21 19 17 18 20 19 19 19 18 16 15 14 14 14 14 13 12 10 8 9 7 5 5 4 4 3
13 14 8 3 3 6 7 6 7 10 13 9 4 2 3 3 3 2 1 0 1 1 7 8 3 1 4 4 7 9 12 13 12 11 13 15 15 15 14 14 15 14 14 14 14 15 17 18 20 21 20 20 20 21 23 23 21 22 23 23 22 19 18 18 19 20 20 20 19 17 15 15 15 15 14 13 12 11 10 11 10 7 6 5 3 2
11 11 5 8 5 4 5 2 4 7 8 3 5 5 4 2 2 1 1 1 1 2 5 4 10 4 4 6 7 12 14 13 13 13 14 16 16 15 15 15 14 14 14 15 14 15 15 14 17 21 21 21 21 20 22 22 21 22 23 24 23 21 21 20 19 19 20 22 20 18 16 15 15 15 14 14 13 13 12 12 11 9 9 7 5 4
6 7 6 8 6 5 6 3 2 3 4 2 5 3 1 1 2 2 1 1 1 3 0 8 11 4 4 5 6 12 15 11 8 10 14 16 15 15 16 15 15 14 15 15 14 14 15 14 17 20 22 23 22 20 23 23 21 21 22 23 24 24 23 22 21 19 19 21 20 19 17 16 16 16 16 15 14 13 12 12 11 10 10 10 8 7
3 2 3 3 4 8 11 7 4 5 3 2 5 6 4 2 4 2 0 0 1 2 1 4 4 1 2 4 6 9 11 8 6 8 11 14 15 14 14 16 16 15 14 13 13 14 15 16 19 21 22 23 22 22 23 23 21 20 22 23 23 23 24 23 24 21 19 20 21 20 19 18 17 17 17 16 14 13 13 12 11 10 10 10 9 8
3 3 8 8 3 9 10 9 8 6 5 5 5 5 2 5 6 3 3 1 1 1 1 0 2 2 1 5 8 9 8 8 6 9 8 11 14 14 13 14 14 14 14 13 14 14 15 18 21 21 21 22 23 23 23 23 22 21 21 23 22 22 23 23 23 23 21 20 21 22 21 19 18 18 18 17 13 11 12 12 11 10 9 9 9 9
3 4 10 10 6 9 7 7 8 4 1 4 5 3 3 6 6 3 3 3 2 2 0 2 0 2 2 1 3 7 9 10 10 10 9 10 14 14 12 12 13 14 15 14 13 13 15 18 20 22 23 23 23 24 24 24 24 22 21 22 23 22 23 24 24 24 23 21 21 22 23 21 20 19 19 17 13 10 11 11 10 9 9 9 9 8
5 4 9 12 10 9 6 4 6 6 5 4 1 3 3 3 3 3 1 2 2 1 1 2 1 4 2 1 3 7 6 8 13 14 12 12 13 13 11 12 13 13 14 14 14 14 15 18 20 22 23 24 24 25 25 23 23 25 24 23 24 24 24 25 24 24 24 23 20 21 23 22 21 20 19 17 14 12 12 11 9 9 10 10 9 9
6 2 5 8 6 6 7 4 5 7 8 4 0 2 0 2 2 1 1 0 2 1 1 3 1 2 2 1 2 6 2 2 10 15 14 13 14 13 12 13 14 13 12 13 14 14 14 16 20 22 23 24 25 25 25 23 22 25 26 24 25 26 26 26 25 25 25 24 23 22 22 23 22 20 19 19 17 15 14 13 12 12 11 10 10 10
5 1 2 4 3 4 5 4 3 3 5 3 2 1 1 4 1 2 3 0 0 2 2 4 3 1 2 2 3 6 4 3 6 8 9 11 12 11 12 13 13 11 10 11 13 14 13 16 21 23 23 24 25 25 26 25 23 24 25 24 25 27 27 26 26 26 26 26 26 23 22 23 23 21 19 19 19 18 16 16 15 14 13 12 11 12
1 2 2 1 2 1 2 1 1 2 4 1 2 1 1 3 1 2 4 2 1 2 2 3 2 2 1 2 2 5 6 5 6 5 6 7 10 10 11 12 12 11 10 10 11 14 14 16 22 24 23 24 24 25 25 25 24 24 25 24 24 27 27 25 26 28 28 29 28 24 23 23 23 22 21 20 20 20 19 18 17 17 16 15 13 13
1 2 3 2 3 3 2 1 1 4 4 3 3 3 1 1 1 2 2 2 2 2 4 2 2 2 4 2 2 3 5 2 3 4 3 3 8 10 9 9 9 10 10 9 10 13 13 14 20 24 23 23 23 23 24 24 24 23 25 24 23 25 27 25 25 27 27 27 26 25 24 25 24 24 22 21 21 21 20 19 18 17 16 15 15 15
3 2 2 1 2 6 5 4 5 8 6 5 4 2 1 1 1 2 1 2 4 1 3 3 3 2 2 3 3 1 3 1 1 2 3 3 5 5 8 10 8 8 10 10 8 10 11 15 21 23 23 22 23 24 25 25 25 24 24 25 24 25 26 25 25 26 26 26 25 25 26 25 26 26 24 22 22 21 21 20 19 17 14 14 15 16
4 3 1 1 2 6 6 5 8 8 5 4 3 1 2 2 3 4 3 0 2 2 1 0 2 0 4 7 8 4 6 4 3 5 3 3 3 5 6 10 8 7 9 10 8 6 9 16 20 21 21 22 22 23 24 24 25 25 23 24 24 24 26 26 25 25 26 27 26 25 26 26 26 26 25 24 23 22 22 21 20 17 15 14 15 16
3 2 2 2 2 2 2 3 4 4 3 2 1 3 6 4 5 5 4 1 2 2 2 2 1 1 3 6 8 8 5 5 5 7 2 6 3 6 3 3 4 6 7 9 9 6 7 13 16 17 20 22 21 22 23 22 24 25 23 23 24 24 26 27 26 25 26 27 27 26 26 26 26 26 27 26 24 23 23 22 20 18 17 16 16 17
3 3 2 1 1 1 1 2 2 4 3 3 3 4 7 4 5 3 4 2 1 3 3 3 1 1 1 4 7 9 6 3 4 6 4 6 6 1 6 1 4 4 6 9 9 7 7 10 14 16 18 20 21 21 22 22 23 24 24 24 25 25 26 27 27 26 26 27 28 27 27 27 26 26 27 26 25 24 24 23 21 19 18 17 17 18
3 4 2 3 1 3 2 2 3 5 5 6 6 3 5 7 4 5 3 2 1 3 3 2 3 2 1 0 3 6 5 2 2 4 6 6 2 3 7 7 5 4 5 6 6 6 6 8 13 16 17 19 21 21 22 24 25 24 24 24 25 26 27 27 27 27 27 27 28 28 28 28 27 27 27 26 26 25 24 24 22 21 19 18 18 19
2 3 2 4 4 4 4 5 6 6 7 9 9 4 5 9 5 2 4 1 2 2 2 2 2 2 4 2 0 4 4 1 2 2 6 6 2 2 2 6 8 8 7 7 7 7 6 7 10 13 16 19 20 19 20 23 24 24 24 25 26 26 27 27 27 27 27 27 27 28 28 28 28 27 27 26 26 25 25 24 23 22 21 20 19 20
2 3 4 3 5 5 8 9 7 7 10 10 9 5 4 7 6 6 6 1 2 4 2 2 3 4 5 5 4 4 5 5 4 2 6 4 1 4 8 5 5 7 6 7 8 7 7 9 8 10 12 15 18 18 19 22 24 23 23 25 26 27 27 28 28 27 27 27 27 27 28 28 27 27 26 26 26 26 26 25 23 22 21 21 21 20
2 3 7 9 7 6 8 7 4 8 9 7 10 9 5 5 6 6 6 5 3 6 3 4 5 6 6 6 5 3 3 7 5 2 7 6 5 6 7 4 7 7 8 9 9 9 10 10 8 8 7 10 15 16 16 19 22 23 24 25 26 26 27 27 27 27 27 26 26 26 27 26 26 26 26 26 26 26 26 25 24 23 22 22 22 22
2 2 5 6 6 7 9 8 6 7 7 7 10 11 9 8 8 9 10 10 8 8 8 8 6 6 5 8 7 3 3 6 7 5 3 1 2 4 2 3 7 7 8 8 8 9 10 11 10 7 5 5 8 11 11 13 18 21 23 24 26 26 26 27 27 27 26 26 26 26 25 26 26 26 26 27 27 27 26 26 25 24 24 23 23 23
2 3 4 4 3 5 7 8 7 8 8 7 9 14 15 11 10 10 10 12 12 12 10 7 6 5 6 9 9 7 7 7 6 6 4 2 1 3 5 3 3 2 5 3 2 3 7 11 12 9 8 8 9 11 13 13 15 19 22 24 26 26 26 26 26 27 26 25 25 25 25 25 25 26 26 27 27 27 26 26 25 25 25 24 24 24
1 1 2 2 1 4 6 10 11 9 7 4 7 13 14 12 14 13 12 14 16 13 8 6 6 6 6 8 9 8 8 7 6 7 6 4 2 1 5 7 2 4 4 5 4 4 4 9 14 13 13 14 16 22 24 18 17 22 25 25 26 25 26 26 26 26 26 25 25 25 26 25 25 26 27 27 27 27 27 26 26 25 25 25 25 24
2 2 1 0 0 3 6 10 10 7 3 1 5 9 11 12 14 13 11 14 15 12 10 8 9 10 9 10 11 10 9 7 4 5 7 7 5 4 4 6 6 3 4 3 7 8 8 12 15 17 20 19 22 32 35 25 22 24 23 22 25 24 24 25 25 25 25 25 25 26 26 26 26 26 27 27 27 27 27 27 27 26 26 25 25 25
3 3 1 1 1 3 4 6 5 4 0 3 4 9 10 11 12 10 11 13 15 14 14 12 12 13 12 12 13 12 12 11 7 5 7 7 6 6 5 5 7 5 3 0 4 9 13 15 15 16 20 22 24 34 36 28 26 27 24 20 24 25 23 23 23 24 24 25 25 26 26 27 27 27 27 27 28 28 27 27 27 27 27 26 25 25
3 3 0 1 2 1 1 1 1 1 2 5 6 9 9 8 10 8 8 13 16 15 14 13 12 13 14 14 14 13 13 14 9 6 8 8 6 7 7 4 4 4 3 3 3 5 10 14 18 18 18 19 22 30 33 28 27 28 24 21 21 21 21 22 22 22 23 24 24 25 26 26 27 27 27 27 27 28 28 28 28 28 27 27 27 26
5 3 1 2 2 2 3 2 1 1 2 4 6 9 8 7 8 5 3 9 14 14 12 12 12 13 14 14 14 13 12 11 7 6 11 11 7 5 5 4 4 5 4 6 10 12 7 3 10 15 17 19 20 21 25 27 27 25 21 21 23 21 20 21 22 22 22 23 24 25 25 26 26 27 27 28 28 28 28 28 28 28 27 27 27 27
0 2 1 4 3 2 5 5 2 2 1 3 6 8 8 8 9 6 0 4 10 13 12 11 11 12 13 13 14 14 9 5 3 5 11 14 11 8 7 4 5 7 7 11 12 5 7 11 6 2 8 12 12 10 11 14 19 22 21 21 24 25 23 21 22 23 22 21 22 23 23 25 26 27 27 27 28 28 28 28 29 29 28 27 26 25
4 2 2 4 4 3 5 5 3 1 1 4 8 8 6 7 8 6 2 2 8 12 12 10 10 11 11 11 13 12 7 4 5 7 11 16 15 13 12 10 11 14 14 15 12 8 11 5 3 4 4 5 12 13 11 9 10 15 19 21 23 24 25 24 23 23 23 22 22 23 24 26 26 27 27 27 28 28 27 27 28 28 28 28 27 26
5 3 3 3 4 3 4 3 1 1 1 6 10 10 8 7 6 4 2 1 5 7 10 12 11 11 10 10 9 8 7 6 6 8 11 14 13 14 15 15 16 18 17 17 14 6 7 3 2 1 3 4 11 15 14 10 13 15 15 18 21 23 25 24 21 21 22 22 22 23 25 26 26 26 27 27 27 28 27 27 27 27 28 27 26 26
2 2 1 2 1 3 3 2 1 2 2 9 12 12 12 10 6 2 2 2 3 3 5 8 12 13 12 10 7 6 6 7 8 9 11 12 13 13 14 16 16 17 19 22 22 15 5 2 2 3 3 4 10 14 15 14 16 15 12 14 18 20 20 18 19 23 23 21 21 23 24 26 26 26 26 27 27 27 28 28 26 25 25 27 26 25
2 2 0 1 2 2 1 1 1 2 3 10 12 11 11 7 2 1 3 3 4 5 3 4 9 12 12 10 8 6 7 8 10 11 12 13 13 13 14 16 17 18 21 24 25 24 16 6 2 4 5 3 7 12 14 14 15 14 12 15 20 19 18 19 23 26 24 23 25 26 26 26 26 27 27 26 26 25 25 27 27 26 25 24 24 24
4 4 2 4 4 4 2 3 2 1 5 12 12 8 8 5 1 2 4 3 5 8 6 5 7 9 10 10 9 7 8 10 12 13 14 14 13 13 14 15 15 16 19 22 24 26 23 15 10 10 8 4 3 9 12 14 15 17 18 20 23 20 20 23 23 21 21 24 27 28 28 27 28 28 26 25 27 26 23 23 24 24 25 24 23 22
6 5 3 4 4 4 3 3 2 1 5 9 8 5 6 6 3 4 5 4 4 6 6 5 7 8 8 9 8 7 7 8 11 13 13 14 14 13 12 13 15 17 21 24 25 25 22 19 18 17 16 14 7 2 4 6 12 15 16 18 20 16 13 18 21 22 24 25 25 26 24 21 21 22 22 22 24 25 25 23 19 17 18 21 22 21
4 3 2 4 5 4 2 2 1 2 3 5 6 5 6 7 7 7 6 4 3 4 5 6 7 8 8 8 9 9 8 8 6 7 9 12 15 15 13 15 18 19 20 23 25 24 20 19 21 21 22 24 24 18 13 9 7 8 7 9 11 11 11 14 18 23 26 26 24 23 21 17 15 16 18 16 14 12 12 12 11 11 12 13 14 16
3 4 3 2 3 4 4 3 2 2 4 5 5 5 5 6 7 7 7 6 5 6 6 7 8 9 9 8 8 9 11 10 9 8 8 9 12 14 15 16 19 21 21 22 24 24 21 17 18 20 19 19 22 23 19 16 14 13 9 6 6 9 11 11 13 17 20 17 10 6 7 10 11 10 9 9 7 6 7 9 6 9 12 12 13 15
4 5 4 3 2 3 3 4 4 3 4 6 5 4 5 6 7 7 7 7 7 7 8 8 9 10 10 10 9 9 11 13 12 11 10 10 11 12 13 15 17 20 22 24 26 28 26 21 18 17 15 14 18 22 22 20 21 21 19 15 10 6 6 8 11 12 8 2 8 9 3 4 10 13 10 8 6 5 7 11 10 9 10 12 13 15
3 3 2 5 4 2 3 4 4 3 2 4 5 5 5 6 7 7 7 8 8 9 9 9 9 9 9 10 10 10 11 12 13 12 11 11 11 12 13 15 18 19 21 23 26 28 28 26 24 22 20 20 23 25 25 23 22 22 21 19 16 10 9 12 10 6 2 2 2 2 4 5 7 11 11 7 6 5 5 8 8 6 6 9 10 12
2 2 2 5 4 2 2 2 3 2 1 4 6 6 5 6 6 7 8 8 10 10 10 10 10 10 10 10 9 9 9 10 11 11 11 10 10 11 12 14 16 17 19 21 22 24 25 25 26 26 25 25 27 27 26 25 25 25 22 19 19 15 10 11 8 1 4 2 1 3 4 3 1 6 7 3 3 4 6 5 2 5 4 1 2 2
1 3 4 3 3 2 1 2 4 2 0 3 6 6 6 6 6 6 7 8 9 10 10 10 10 10 10 10 10 8 8 8 9 9 9 9 10 12 14 15 14 15 17 18 18 20 22 22 23 24 25 25 26 26 26 26 28 29 27 24 23 22 16 12 9 6 7 10 10 11 11 7 3 3 4 4 7 7 8 11 9 6 4 8 11 11
5 5 5 3 3 3 1 1 3 2 2 2 4 5 6 5 6 7 8 8 8 8 8 8 9 9 9 10 12 11 9 8 9 9 8 9 11 13 14 15 15 15 16 16 16 17 19 20 21 22 23 23 24 23 23 24 26 28 28 27 26 25 24 22 15 9 11 16 18 16 16 15 13 13 13 15 15 12 8 9 12 11 11 10 10 11
Wind_Direction
223 214 211 222 217 226 222 236 244 253 277 261 229 268 326 315 288 271 238 205 186 195 196 199 208 166 170 186 169 179 187 192 205 191 191 200 189 186 184 180 172 170 167 162 169 167 158 158 155 156 161 157 155 159 159 151 145 142 141 146 141 145 160 155 149 147 144 152 161 155 146 129 119 117 109 96 88 72 59 59 54 50 51 48 47 50
209 214 219 209 282 339 317 319 321 299 290 296 315 317 285 239 246 263 285 256 191 196 211 198 208 180 184 196 168 175 186 198 209 192 197 202 184 188 191 182 167 162 166 163 167 164 158 159 157 163 166 156 158 163 158 153 153 149 149 152 143 151 172 169 167 166 159 161 164 157 146 138 138 138 125 106 98 85 73 68 58 53 55 57 54 51
195 203 190 147 65 6 330 338 333 287 284 324 298 235 200 189 199 185 248 256 208 184 217 207 208 164 186 206 166 170 189 198 208 195 202 205 186 186 192 186 164 158 167 167 168 164 162 163 160 166 171 162 159 160 159 157 154 149 149 148 142 157 182 181 182 173 157 155 156 156 151 146 147 134 112 100 100 95 86 78 65 57 56 60 60 58
191 213 191 128 100 59 291 296 273 266 252 225 244 233 192 190 202 169 198 221 207 198 211 196 196 116 181 210 168 175 194 192 200 196 202 208 193 187 192 189 167 162 170 170 170 166 165 167 163 167 173 164 157 162 166 160 153 149 152 156 150 166 186 182 182 165 147 152 158 157 149 141 136 120 109 108 109 106 101 89 75 64 58 60 61 62
168 182 192 168 158 187 208 200 213 238 217 209 237 244 225 202 204 207 193 186 184 226 215 174 187 161 176 203 181 179 188 190 197 195 201 207 197 191 193 190 175 167 168 170 173 170 168 168 165 169 176 165 160 171 170 159 160 155 157 166 160 170 188 175 171 165 152 160 162 148 138 135 133 132 140 139 124 114 105 90 76 66 61 63 63 63
135 152 174 181 187 200 209 194 204 229 227 229 253 244 244 237 214 215 208 181 179 222 202 181 207 183 160 201 205 181 186 196 194 194 203 203 195 194 194 191 183 171 168 173 175 173 170 170 170 173 176 171 167 175 168 160 168 161 159 170 163 171 188 170 166 169 157 157 153 143 141 147 152 158 168 151 133 128 105 89 80 71 66 66 66 65
144 160 175 192 200 199 204 213 225 239 248 276 264 232 234 242 224 223 216 186 182 233 190 188 236 221 156 209 217 197 198 202 198 198 201 199 193 194 196 193 186 175 172 178 177 176 172 171 175 175 174 175 172 173 167 165 171 162 161 171 166 172 185 174 168 166 161 158 157 155 156 165 173 170 166 148 135 130 112 101 97 83 69 65 66 66
203 218 202 203 205 197 202 221 229 227 226 250 244 223 228 228 199 224 243 205 160 222 217 238 248 256 226 212 208 207 209 203 205 205 198 199 194 189 194 194 188 179 176 181 177 176 177 173 177 179 177 175 172 174 170 165 168 164 163 169 169 173 179 178 169 162 165 172 173 175 174 178 181 168 155 147 136 126 120 120 109 96 87 74 73 68
198 210 202 204 211 214 210 225 235 228 230 251 246 209 209 222 202 207 246 349 20 349 211 226 250 261 280 220 201 210 218 208 206 204 198 201 194 189 195 191 189 185 180 183 176 173 179 177 178 180 179 176 175 178 173 163 165 166 165 168 174 177 177 178 172 165 171 182 185 187 186 184 177 167 163 157 147 136 133 136 114 107 104 81 77 75
233 226 224 214 210 216 223 235 239 235 237 257 265 220 189 172 9 30 114 90 14 333 235 217 226 233 240 229 208 205 217 213 206 200 199 202 193 190 195 192 192 187 180 180 177 176 178 178 181 181 181 180 177 175 168 162 164 168 167 171 178 179 177 177 175 173 176 182 191 194 194 188 170 171 178 167 159 156 153 154 146 151 148 110 96 90
277 275 259 223 184 192 211 231 230 233 249 261 268 251 165 83 58 14 90 114 85 49 260 244 220 227 236 198 200 201 211 210 204 199 198 201 197 191 190 192 191 186 183 183 179 177 177 179 182 182 183 179 174 171 165 164 168 172 171 172 176 178 179 179 178 179 179 184 195 199 197 189 174 181 186 172 163 164 172 172 165 174 166 133 119 107
268 267 254 159 184 201 189 229 237 234 255 273 307 349 6 58 77 36 80 120 32 191 263 252 176 356 293 205 193 205 210 206 201 202 198 195 198 195 187 188 190 187 187 185 181 176 176 181 182 183 184 176 174 176 167 167 175 176 173 173 175 180 184 183 182 185 182 183 195 200 199 193 185 189 187 175 174 177 184 180 170 174 169 145 138 143
265 252 194 141 189 180 137 231 254 240 256 301 39 24 348 330 5 354 211 231 251 257 265 160 111 82 276 248 218 200 202 207 202 197 195 194 197 195 187 185 190 190 185 186 188 179 174 179 182 184 184 178 182 181 167 171 181 176 172 174 175 181 186 185 187 192 183 182 194 202 203 200 192 194 190 183 187 191 188 180 174 178 174 163 165 175
257 235 185 156 161 149 151 189 208 222 263 59 89 76 31 345 297 251 228 350 291 284 257 134 136 155 247 252 216 192 198 211 217 201 189 190 194 193 187 185 189 190 186 188 188 178 176 181 182 184 183 181 186 182 169 175 186 177 173 178 178 181 187 183 187 197 189 183 192 201 206 205 198 200 201 195 194 195 188 178 180 188 179 172 175 180
280 242 230 181 162 187 188 185 188 183 177 137 130 125 124 201 243 258 221 197 260 281 188 152 159 168 194 194 172 180 188 187 231 231 190 183 188 188 189 186 188 188 185 189 188 179 177 179 180 182 181 180 183 183 177 178 185 181 177 182 182 182 185 182 184 195 196 188 191 200 207 208 201 202 207 207 203 197 190 184 189 194 182 176 179 177
300 297 290 300 246 215 203 179 198 203 166 159 143 114 133 210 218 283 321 316 316 318 265 269 21 50 151 194 177 176 169 158 212 234 198 185 184 180 189 189 187 187 183 190 195 182 172 173 178 179 179 179 180 183 184 182 185 186 182 181 183 186 186 185 187 192 197 196 192 199 208 208 204 203 208 214 214 203 194 194 195 191 184 182 180 175
234 247 258 264 232 225 232 185 188 227 189 161 170 170 199 203 198 244 314 343 7 42 345 263 185 77 30 288 160 146 159 169 182 196 199 196 182 174 185 191 190 189 183 187 193 181 167 171 177 178 179 182 180 182 189 188 184 184 183 180 183 190 190 189 191 190 196 201 196 197 206 208 207 206 207 212 217 214 204 201 199 190 193 193 182 178
226 243 220 221 214 201 211 188 174 213 208 153 211 232 196 218 230 221 222 326 333 88 126 265 143 112 133 280 66 97 137 176 166 174 193 190 181 181 183 187 191 191 185 183 186 182 171 170 177 180 181 184 181 182 191 193 183 180 186 185 185 192 192 190 192 191 194 202 202 200 204 209 210 207 204 206 212 219 214 209 209 203 201 195 184 189
226 273 221 225 236 174 170 199 189 213 214 165 267 277 279 301 292 252 205 246 303 55 67 287 304 99 130 195 117 110 112 228 152 165 186 179 176 186 185 187 191 190 188 182 183 186 176 169 176 179 180 183 183 183 190 193 186 183 187 190 188 191 194 191 193 193 192 198 204 205 204 208 212 210 205 203 206 215 216 211 216 216 210 200 192 199
226 293 244 227 260 161 170 223 185 207 235 213 218 203 337 310 338 326 293 231 57 56 41 272 245 105 97 181 165 145 193 250 119 146 195 178 172 183 181 185 190 190 189 184 184 186 178 168 173 178 180 182 184 184 188 192 191 185 184 192 194 190 191 190 191 194 192 196 204 203 201 206 211 212 209 204 202 209 214 212 214 217 214 207 202 202
245 355 304 241 286 205 181 246 141 219 247 228 265 228 173 284 346 337 299 328 52 87 82 269 272 47 252 220 135 145 201 208 124 159 213 165 165 187 184 181 187 187 185 187 188 185 178 168 169 176 181 184 185 185 188 191 191 185 183 195 198 185 185 190 191 194 195 198 203 199 197 204 207 209 212 208 204 206 211 213 216 217 211 205 205 204
43 320 305 2 349 314 315 347 208 243 234 171 242 267 166 230 323 317 300 348 332 138 136 188 246 268 248 209 107 174 228 262 117 165 229 158 173 185 175 172 180 179 176 183 191 183 173 161 166 176 182 186 186 182 184 189 192 190 188 195 196 181 182 194 194 194 196 198 200 196 197 202 203 206 211 212 209 206 209 215 221 221 207 198 204 207
15 288 264 69 342 295 298 300 265 255 244 212 229 270 114 144 139 262 278 4 319 314 128 156 166 227 280 21 3 202 162 340 337 224 220 198 204 189 163 165 170 171 169 174 192 186 165 158 167 177 182 188 189 181 184 188 190 195 194 192 194 186 185 194 197 196 196 198 199 198 199 201 200 204 210 214 213 209 208 215 223 222 209 200 205 209
338 292 263 85 291 271 262 258 260 261 263 255 254 282 262 199 173 248 264 247 281 317 23 209 128 57 353 360 334 353 90 91 328 279 225 107 330 274 173 159 160 161 164 169 186 190 162 159 169 178 183 192 195 185 186 189 185 191 198 192 191 189 186 192 199 196 194 197 201 200 199 201 200 201 207 213 216 212 209 214 220 219 214 210 210 211
299 312 7 25 330 289 261 244 268 306 336 312 275 276 275 242 184 249 286 232 251 353 357 311 137 124 12 3 334 343 33 64 22 314 309 110 219 278 42 105 171 153 160 171 175 181 168 164 173 184 187 192 196 190 189 188 181 187 199 193 187 188 187 191 198 197 193 196 199 200 200 202 201 201 204 210 213 212 211 214 218 218 217 216 213 214
296 312 323 339 339 354 309 270 317 354 350 309 272 262 285 281 164 192 289 266 283 4 351 320 34 129 49 5 334 332 338 44 55 322 335 123 184 224 63 314 246 141 163 175 168 180 187 178 180 187 190 192 196 195 190 187 184 188 196 191 186 188 189 192 196 197 195 194 196 200 201 203 203 203 205 208 210 211 212 214 217 218 219 218 216 217
284 299 8 83 302 308 324 270 267 288 288 292 297 304 310 292 190 171 274 301 358 339 326 6 65 67 337 305 293 306 323 52 98 325 14 71 139 123 132 193 209 146 168 169 167 191 198 190 183 184 193 194 196 198 190 187 190 193 192 187 186 188 189 192 194 195 196 194 194 198 201 203 205 204 205 207 208 209 211 214 217 218 219 218 217 220
285 303 50 132 209 253 283 254 238 257 257 258 271 281 296 291 279 260 281 190 117 301 318 78 98 329 323 24 3 304 326 1 243 348 50 60 354 339 207 202 176 166 177 170 179 198 209 212 190 183 194 194 195 200 192 185 190 193 191 188 188 190 190 191 193 195 196 194 195 198 200 203 204 205 206 207 207 210 212 214 216 216 218 219 218 220
323 338 345 303 251 242 259 252 233 249 256 259 280 294 285 303 338 320 286 182 161 251 257 274 297 341 360 19 22 348 337 311 280 113 105 119 183 278 272 252 142 147 173 185 193 194 213 232 206 185 192 189 192 202 196 185 187 192 194 190 189 191 191 191 192 195 196 196 197 199 200 203 204 205 206 206 207 210 213 216 217 217 219 221 222 224
349 7 355 335 314 292 285 283 273 272 280 317 335 329 302 313 349 329 325 14 323 279 300 321 332 29 30 347 344 6 341 313 308 113 139 163 190 227 239 189 148 167 186 198 211 205 212 230 215 184 183 187 191 198 197 187 185 193 198 193 191 192 191 191 192 195 197 198 199 200 200 202 204 205 206 206 207 210 213 216 218 218 220 220 222 225
1 348 360 355 335 312 298 286 273 278 300 339 341 332 323 325 344 349 2 17 350 330 358 7 10 40 24 338 336 12 19 334 330 360 57 123 292 318 343 148 181 215 217 203 207 208 208 217 212 188 180 194 177 173 196 201 192 201 206 196 192 194 192 191 193 196 199 200 200 201 201 202 203 205 206 206 207 210 212 216 218 220 221 221 222 224
355 336 353 9 342 311 303 298 297 307 319 334 358 357 348 349 7 12 18 26 15 356 355 9 21 21 3 347 339 345 358 344 330 345 352 305 310 355 335 286 199 237 279 259 221 224 215 212 213 201 190 192 163 168 208 213 194 206 215 201 194 194 193 192 192 195 200 201 200 201 201 203 204 205 207 207 208 211 213 215 218 219 221 222 223 224
316 330 356 24 331 319 344 350 338 325 318 337 24 10 355 5 23 26 30 29 24 15 4 13 20 3 351 347 337 337 345 336 332 346 335 314 329 322 286 286 254 164 201 239 236 233 233 222 217 212 204 192 174 187 207 206 192 214 222 204 193 193 192 192 192 195 200 201 202 202 202 204 205 205 208 208 208 211 213 216 219 220 221 223 224 225
245 228 279 100 249 317 3 14 350 317 293 355 27 13 7 22 32 39 44 31 25 25 20 17 13 3 357 351 341 337 335 328 338 4 1 357 345 308 299 326 344 71 134 209 224 209 224 234 221 212 212 204 187 192 203 200 197 221 229 203 193 196 195 193 193 195 200 203 204 204 202 203 206 208 210 210 210 212 213 214 219 221 222 223 223 225
249 221 259 249 217 304 356 35 8 324 26 112 54 23 19 28 37 59 70 44 27 22 18 14 8 358 353 352 346 341 337 334 341 10 15 11 350 335 1 18 4 21 77 120 207 192 208 222 220 213 212 206 192 190 197 196 195 212 224 206 194 196 194 195 197 195 199 205 207 207 204 204 207 209 210 210 210 212 214 215 218 220 220 222 223 225
235 219 193 265 223 251 287 100 98 328 61 94 61 25 16 21 25 39 67 46 26 17 13 7 1 355 352 351 348 345 340 333 334 6 18 14 8 357 359 14 14 5 2 346 309 240 224 213 213 219 215 209 195 184 188 197 196 201 209 200 193 198 198 199 201 198 200 204 207 211 210 207 209 210 212 213 211 212 215 216 218 219 219 220 223 225
220 223 174 247 239 224 255 251 171 149 58 55 34 14 6 6 0 353 63 47 24 13 8 360 356 359 356 351 348 345 340 334 339 18 20 12 7 347 338 356 1 331 299 281 266 260 274 234 205 211 208 209 207 190 187 199 199 195 195 190 192 202 204 202 202 202 205 206 207 212 214 212 213 212 212 213 213 214 215 215 218 220 219 219 221 223
169 298 270 250 234 224 259 268 251 188 134 40 16 3 356 349 345 333 220 48 14 1 357 355 356 356 353 354 352 343 334 339 10 35 17 0 349 338 334 336 323 313 308 299 289 294 33 31 30 224 205 192 196 214 228 225 207 194 189 187 192 199 204 206 205 205 210 213 211 213 216 217 218 217 215 215 216 217 217 216 217 218 218 219 221 223
49 4 331 272 247 244 256 267 295 270 142 29 0 352 346 331 331 329 298 26 8 350 338 343 359 359 353 355 356 352 356 12 7 16 9 355 353 358 0 3 355 348 345 333 335 58 85 58 8 333 296 143 152 196 242 276 250 215 201 194 190 193 202 208 206 204 210 217 217 217 220 221 221 220 219 218 218 220 219 217 217 217 218 219 222 226
31 9 351 282 270 299 288 277 340 87 58 357 340 338 340 322 302 288 264 3 27 353 328 334 357 4 355 353 359 4 18 16 348 354 2 355 359 9 13 21 12 352 349 351 350 39 104 158 214 287 300 122 148 182 199 213 239 243 232 214 198 192 200 207 209 210 213 216 221 223 222 223 225 225 223 221 221 222 222 221 219 217 216 218 222 225
24 348 279 237 318 1 337 324 84 121 14 342 336 340 340 317 278 252 305 325 8 350 316 336 357 3 359 1 12 10 7 3 343 346 8 11 11 12 13 24 21 2 3 3 345 337 12 100 195 245 258 184 165 175 178 191 220 240 256 252 233 211 198 196 203 210 212 215 224 230 227 224 226 229 228 225 223 223 222 222 223 222 219 219 221 223
4 317 311 32 5 353 341 14 71 102 19 342 335 345 351 331 273 15 341 318 340 347 354 20 12 3 358 4 19 10 355 355 346 351 16 21 15 16 13 13 14 8 8 8 353 346 358 11 296 303 303 238 174 173 175 182 205 220 231 248 249 229 199 192 199 202 205 214 224 231 231 227 229 233 232 227 225 226 225 221 221 223 223 221 220 221
3 338 13 31 356 329 4 45 59 88 9 349 342 358 18 17 2 317 324 348 8 354 358 44 41 15 359 1 13 11 1 0 357 2 18 19 14 20 17 11 12 8 2 4 358 352 353 348 329 324 325 328 161 176 183 184 192 200 203 219 238 234 208 204 209 202 199 208 217 223 226 227 229 229 228 226 224 225 227 226 223 222 221 222 222 222
11 354 8 34 15 347 7 41 35 312 343 358 6 27 34 25 2 334 348 21 24 349 343 17 45 40 17 1 6 21 32 28 11 4 11 18 20 24 22 15 15 11 5 2 352 346 354 360 348 344 351 356 357 192 207 219 211 205 198 210 230 233 206 206 217 212 207 209 214 220 229 240 242 231 226 227 226 224 225 226 223 222 222 222 222 218
28 33 54 49 49 55 67 74 38 303 326 14 38 42 29 19 6 1 14 27 24 10 4 11 28 40 36 14 2 14 38 57 55 30 18 20 24 27 29 29 26 20 16 10 357 351 4 11 360 2 12 4 353 352 354 336 283 247 221 205 209 206 198 207 215 214 216 220 221 221 223 235 247 237 226 226 228 232 240 235 218 213 226 243 248 238
56 61 70 69 99 113 96 71 68 30 4 22 47 50 35 28 16 11 18 21 19 26 27 21 20 26 32 28 14 13 21 32 49 58 48 37 36 36 35 35 33 29 25 21 13 12 22 28 15 12 16 6 353 350 352 353 352 345 328 289 230 211 214 226 227 225 227 227 223 209 204 223 253 260 239 232 242 262 299 314 287 232 237 264 284 280
24 22 37 58 97 130 86 50 55 59 18 6 29 44 35 34 32 25 18 13 17 31 37 37 33 27 26 27 26 24 22 19 26 41 46 43 42 42 41 39 37 36 33 28 24 23 27 34 32 19 11 10 6 359 355 356 359 358 351 338 320 280 247 254 252 246 255 8 57 57 66 247 279 289 283 287 301 283 271 279 277 263 258 262 264 264
347 340 42 75 67 61 71 65 75 93 53 9 22 30 23 27 34 35 30 22 22 28 33 38 41 38 34 32 30 31 30 22 22 31 38 40 37 34 35 34 31 34 37 35 33 32 30 27 25 23 20 21 20 14 9 5 3 6 7 358 344 321 281 272 264 239 191 77 103 181 203 205 241 264 270 297 348 352 306 275 266 267 271 259 245 242
268 302 53 94 98 82 74 56 53 92 79 27 30 32 27 28 35 38 38 34 28 25 25 30 35 38 40 38 34 35 36 29 24 26 30 34 33 27 25 25 26 30 34 35 37 39 36 29 22 19 19 19 19 19 19 15 13 15 15 8 1 353 323 299 301 17 116 120 119 82 66 65 316 283 286 312 27 45 47 56 135 189 195 169 81 118
14 13 19 68 96 79 32 352 12 38 69 17 25 34 32 29 36 39 37 35 35 30 25 25 27 32 38 38 31 30 37 36 30 29 30 28 25 21 18 18 21 25 28 32 37 39 39 37 30 22 18 16 16 18 18 16 15 15 14 12 13 16 18 11 5 29 57 52 57 77 84 78 45 339 352 57 98 107 86 78 92 114 93 54 41 35
38 26 17 35 64 64 74 48 48 80 117 33 27 40 41 34 37 40 32 26 31 34 33 34 29 27 33 36 28 25 28 32 31 31 32 30 24 22 21 21 23 24 24 26 33 38 40 41 39 31 22 14 13 15 16 14 14 13 13 14 19 27 36 37 30 27 47 50 53 68 81 82 76 69 64 68 78 83 74 67 69 64 52 43 32 22
Height
745 753 757 754 749 744 742 744 745 748 750 748 750 762 771 773 770 760 752 740 736 750 754 752 754 758 762 759 758 762 762 764 766 765 766 765 765 767 769 772 774 777 777 778 781 783 786 789 792 794 796 798 800 802 804 806 808 810 812 813 815 816 818 818 819 820 821 822 823 823 824 825 825 826 826 826 827 827 827 827 827 827 827 826 826 826
742 759 759 750 749 748 748 750 753 756 758 757 762 775 779 781 780 767 761 749 737 750 755 750 753 757 758 756 755 758 762 765 763 763 765 763 764 767 768 770 773 775 776 778 780 782 785 788 791 794 795 797 799 801 803 805 807 809 811 813 814 816 817 818 819 819 820 821 822 823 824 825 825 826 826 827 827 828 828 828 828 828 827 827 827 826
744 758 757 749 751 754 754 756 763 764 764 773 777 777 776 773 769 768 773 760 740 750 759 752 755 762 759 753 753 758 761 763 760 760 762 762 763 766 767 768 771 775 777 778 780 781 785 787 790 793 794 796 799 801 803 804 806 808 811 813 814 816 817 817 818 819 820 821 822 823 824 825 826 826 826 827 828 828 828 828 829 829 828 828 828 828
752 755 749 747 752 760 764 766 771 769 771 784 776 765 764 759 758 766 771 758 741 744 751 751 761 770 766 757 754 756 756 757 758 758 759 759 761 764 765 766 769 774 777 778 779 781 783 786 789 792 793 795 797 800 802 804 806 808 810 812 814 816 817 817 818 818 820 821 822 823 824 825 825 826 827 827 828 828 829 829 829 829 829 829 828 828
753 752 743 746 755 762 767 771 776 774 773 776 762 752 755 751 749 752 751 746 745 746 742 751 772 775 768 766 759 753 754 756 757 758 760 759 759 761 763 764 767 771 774 777 779 780 782 785 788 791 792 794 796 798 800 802 805 807 810 812 814 815 816 817 818 818 819 821 822 823 824 825 826 827 827 828 828 828 829 829 829 830 830 829 829 829
743 740 738 745 750 751 754 760 764 761 760 761 750 742 746 744 742 744 742 743 757 764 748 751 778 778 766 766 762 755 756 757 755 757 760 759 758 761 763 765 766 769 772 775 777 779 781 784 787 789 791 792 794 797 798 801 804 806 809 811 813 814 815 816 817 819 820 821 822 823 824 825 826 827 827 827 828 829 829 829 830 831 830 830 830 830
738 733 734 741 743 743 748 753 749 744 755 763 745 734 739 741 741 744 741 745 766 773 751 747 773 782 773 767 760 757 758 756 755 756 756 756 757 760 763 764 765 768 772 774 776 777 779 783 785 788 790 791 793 795 797 800 802 805 808 810 812 814 815 816 817 818 819 821 822 823 824 825 826 826 827 828 828 829 829 830 830 831 831 831 831 830
737 735 735 737 739 742 746 749 742 738 754 758 736 729 737 737 745 753 748 750 761 763 753 749 760 777 780 767 757 757 757 757 756 755 754 753 754 758 760 762 763 765 769 772 775 777 778 781 784 786 788 790 792 794 796 798 801 803 806 809 811 813 814 815 816 817 819 821 822 823 824 825 825 826 827 828 828 829 829 830 831 831 831 831 831 831
731 736 737 736 740 742 740 740 736 735 747 743 726 727 733 734 749 762 766 768 764 762 768 764 760 778 786 767 754 757 758 758 757 754 753 752 752 755 757 759 760 762 765 767 771 774 776 779 782 784 787 789 791 793 795 797 800 802 805 808 810 812 813 814 816 817 819 820 821 822 823 824 825 826 827 827 828 829 829 830 831 831 831 831 831 832
727 728 726 728 737 739 735 734 732 735 742 732 719 722 730 742 756 763 771 777 772 773 778 771 765 779 789 776 763 764 764 759 754 750 750 749 749 752 753 755 757 759 761 764 767 771 774 777 780 782 785 788 790 791 794 796 799 801 803 806 809 810 812 813 815 817 818 820 821 822 823 823 825 825 826 827 828 829 830 830 831 831 831 831 832 832
726 719 715 719 728 730 729 730 729 732 733 725 723 728 736 749 759 762 763 764 774 786 777 762 758 768 784 780 766 762 758 751 749 748 747 746 745 747 750 752 754 757 759 761 764 768 772 776 778 781 783 785 788 790 793 795 797 800 802 804 807 809 811 812 814 816 817 819 820 821 822 822 824 825 826 827 827 828 829 830 830 831 831 831 832 832
729 725 716 713 716 719 726 730 728 727 725 726 734 741 749 759 761 767 768 765 782 792 769 749 754 772 786 774 756 752 746 741 743 744 744 744 744 744 746 749 751 754 756 758 761 765 770 774 776 779 782 783 786 788 790 794 796 798 800 803 805 807 809 811 812 814 816 817 819 820 821 822 823 824 825 826 827 828 828 829 830 830 831 831 832 832
735 725 715 714 713 714 729 740 736 731 729 735 746 754 771 780 778 782 780 772 779 775 752 745 761 782 786 763 744 743 739 734 733 733 737 740 741 741 742 745 748 749 752 755 757 761 766 771 773 776 780 782 785 786 788 792 794 796 798 801 803 805 808 810 811 813 814 816 818 819 820 821 822 823 824 825 826 826 827 828 829 829 830 831 831 832
744 727 714 719 721 717 729 743 748 747 742 748 756 768 791 799 796 793 781 776 779 763 742 740 755 775 776 751 734 734 732 729 726 724 728 732 735 738 738 741 744 745 748 750 752 757 762 767 770 773 777 780 782 785 787 790 792 794 796 799 801 804 806 808 810 811 813 814 816 818 819 820 821 822 823 824 824 825 826 827 828 828 829 830 830 831
757 748 728 726 729 724 724 730 739 743 747 754 751 764 791 797 793 787 775 782 788 766 745 742 750 767 769 746 726 725 724 723 725 722 721 726 729 732 734 737 741 742 745 747 749 753 758 762 767 770 774 777 780 783 785 788 790 791 794 797 799 802 804 806 808 810 811 813 815 817 818 819 820 821 821 822 823 824 825 826 827 828 828 829 830 830
764 760 732 720 720 717 719 719 719 728 744 751 747 764 781 770 767 769 759 762 769 765 759 753 751 748 741 728 717 719 722 724 728 724 722 726 726 729 733 734 737 740 742 745 746 750 754 759 764 768 771 774 778 781 783 785 787 789 792 794 797 800 802 804 806 808 810 811 813 815 816 817 818 819 820 821 822 823 824 825 825 826 828 828 829 829
766 760 732 722 719 711 714 714 710 723 739 743 747 759 752 733 741 760 761 755 757 772 774 759 753 744 734 730 720 719 728 732 733 730 727 727 724 728 733 732 734 737 739 743 743 746 751 757 762 765 769 772 774 778 780 781 784 786 789 792 795 798 800 802 804 806 808 810 811 813 814 816 817 818 819 820 821 822 823 824 825 826 827 827 828 829
748 750 730 722 724 712 707 711 711 714 723 737 747 739 727 729 738 746 763 770 767 779 777 757 753 755 754 749 729 722 731 735 738 737 731 729 726 728 731 731 733 733 734 739 741 744 748 754 760 763 765 769 771 775 778 779 781 784 787 790 792 795 797 799 802 804 806 808 809 811 812 814 815 816 818 818 820 821 822 823 824 825 826 826 827 828
730 747 735 714 718 712 703 714 725 717 708 721 732 721 727 754 756 745 759 776 778 783 781 765 756 753 753 748 733 729 733 731 734 734 729 728 727 728 729 729 730 731 732 736 739 742 745 750 756 760 763 766 768 773 776 778 779 781 784 787 789 792 794 797 800 802 804 806 807 809 810 812 813 814 816 817 818 820 821 822 823 823 825 825 826 827
723 747 747 716 709 713 711 719 735 735 718 712 718 720 729 744 748 746 748 758 772 787 790 779 767 756 744 733 729 732 730 725 729 732 727 723 723 724 726 727 729 730 731 733 736 739 742 747 753 756 760 763 766 769 772 775 777 778 781 784 786 789 791 794 797 799 801 804 805 807 808 810 811 813 814 815 817 818 819 820 821 822 823 824 825 826
723 740 748 725 711 722 730 727 731 737 729 725 732 738 738 735 736 743 742 740 754 782 798 792 782 769 742 722 722 726 724 720 723 728 725 721 723 723 722 723 725 727 729 730 732 736 739 744 750 754 758 761 763 766 769 772 775 776 779 782 783 785 788 791 794 796 798 801 802 804 806 808 809 811 812 813 815 816 817 818 819 820 821 822 823 824
728 737 744 737 731 737 735 720 717 722 722 731 740 737 736 737 742 755 759 744 738 759 780 785 792 782 742 718 722 722 720 718 717 722 723 721 723 720 719 722 722 723 727 728 729 732 736 741 747 752 756 758 761 763 766 770 772 774 776 779 781 783 786 789 791 793 795 797 799 801 803 805 807 809 810 811 813 814 815 816 817 818 819 820 821 822
722 730 739 743 740 737 728 714 712 714 711 720 728 724 726 732 743 762 770 755 742 746 751 758 778 770 730 716 725 723 721 722 720 722 722 721 719 716 717 720 720 722 724 726 728 730 734 740 745 749 753 755 757 760 763 766 769 771 774 776 779 781 783 787 789 791 793 795 797 798 801 803 804 806 808 809 810 811 813 814 815 816 817 818 819 821
724 730 740 748 740 728 721 714 712 710 709 721 724 719 724 730 734 745 746 743 747 750 746 756 772 758 727 719 722 718 719 722 722 721 719 722 725 720 718 718 719 723 724 725 729 729 732 738 742 746 750 752 754 756 759 762 765 768 771 773 776 778 781 785 787 789 790 792 794 796 798 800 802 804 806 807 808 809 810 812 813 814 815 816 818 819
732 735 742 758 761 751 743 737 732 725 723 731 730 724 724 723 729 738 734 734 748 749 744 759 771 755 731 723 720 717 718 720 722 721 717 724 731 726 725 725 722 723 725 727 729 730 732 736 740 743 746 748 750 752 756 759 761 765 768 771 773 776 779 783 785 786 788 790 792 793 795 797 799 801 802 804 806 807 808 809 811 812 813 814 816 817
733 737 740 759 775 774 769 761 753 743 735 732 729 725 724 723 733 745 742 743 754 748 741 752 760 748 731 726 726 723 720 721 722 721 719 725 729 727 731 736 728 724 726 727 729 731 732 734 737 740 742 745 748 749 752 755 759 762 766 768 771 775 777 780 782 784 785 787 789 791 793 794 796 798 799 801 803 804 806 807 808 810 811 812 814 815
731 735 736 750 760 760 758 751 741 738 739 739 732 726 727 728 730 737 742 748 752 749 747 745 744 744 738 732 732 726 722 724 723 721 722 726 730 731 733 734 728 725 727 727 729 732 732 733 735 737 740 742 744 747 749 752 756 759 763 766 769 772 775 777 779 781 783 784 786 788 790 791 793 795 796 798 800 802 803 804 806 807 809 810 811 812
735 742 742 745 746 743 741 737 732 734 738 738 732 727 729 728 725 729 738 741 742 750 757 745 735 743 741 732 733 729 723 725 723 723 726 726 726 728 727 725 724 726 727 728 730 732 732 733 733 734 738 739 742 744 746 749 754 757 760 764 767 770 772 774 776 778 780 781 783 785 787 789 791 792 794 796 797 799 800 801 803 804 806 807 808 809
740 748 745 741 740 737 733 729 729 731 730 729 727 728 729 727 730 737 739 734 735 747 752 740 733 741 739 732 732 728 723 724 721 720 726 725 721 723 724 723 723 727 729 730 731 732 733 733 733 734 736 738 741 743 744 747 751 754 758 761 764 767 769 771 773 775 777 779 780 782 784 786 788 790 792 793 795 796 797 799 800 801 803 804 805 807
743 749 745 742 743 737 731 728 727 729 735 739 736 730 726 724 726 734 735 732 733 736 735 733 736 740 737 731 727 722 721 721 716 717 723 724 721 723 725 725 726 728 731 732 732 731 732 732 732 733 735 738 741 742 744 747 749 752 756 759 762 766 767 769 771 772 774 776 777 780 782 784 786 788 789 791 792 793 794 796 797 798 799 801 802 803
745 751 742 741 751 747 734 730 730 731 739 745 741 732 726 725 727 731 733 734 736 736 732 735 744 743 733 726 722 720 720 720 718 721 723 723 722 722 724 726 727 728 728 731 732 730 730 731 731 732 734 737 741 743 745 749 751 752 754 757 760 763 765 767 768 770 772 773 775 778 779 781 783 785 787 788 789 790 791 793 794 795 796 797 798 800
745 749 741 744 762 759 740 734 735 732 733 738 744 746 743 738 740 742 741 741 745 745 740 742 750 748 735 728 726 723 722 724 724 723 723 722 721 722 724 725 726 727 728 730 730 729 730 730 730 731 732 735 740 741 744 749 753 753 753 755 757 760 762 764 765 767 769 770 773 775 777 779 781 782 784 785 786 787 788 790 791 792 793 794 795 796
743 750 749 753 767 763 746 744 744 741 748 756 757 758 753 747 747 749 747 747 747 748 750 753 754 745 735 731 731 729 728 728 727 725 724 723 721 722 723 722 722 726 729 730 729 727 728 729 728 729 730 732 736 737 739 745 752 753 752 752 754 756 759 760 762 765 766 768 770 771 773 776 778 779 781 782 783 784 785 787 788 788 789 790 791 793
744 748 750 753 765 766 753 749 754 760 771 772 759 750 750 750 752 757 758 756 753 750 752 753 749 742 738 737 736 733 730 726 725 725 724 723 722 723 722 720 721 724 727 730 732 730 727 725 725 726 727 729 731 733 736 742 748 752 752 751 752 754 755 757 759 761 763 765 766 768 769 772 774 776 777 778 780 781 782 783 784 784 786 787 788 789
749 749 750 751 759 764 756 758 777 784 774 763 753 748 749 749 748 753 758 757 755 754 752 752 751 746 744 741 738 736 731 725 722 721 721 721 722 722 723 722 722 723 723 726 728 728 725 723 723 723 724 727 728 730 734 738 742 747 750 749 749 750 752 754 755 757 759 761 763 764 766 768 770 772 773 775 776 777 778 779 780 781 782 783 784 785
749 751 753 753 756 763 765 771 785 780 759 751 754 751 749 750 750 756 763 763 759 758 757 757 755 750 746 744 740 736 732 727 723 721 720 720 721 721 722 723 722 722 721 720 720 722 722 721 720 720 722 725 727 727 730 734 738 742 744 744 745 747 749 751 751 753 755 757 759 761 763 764 766 768 769 771 772 773 774 775 775 777 778 779 780 781
746 750 755 759 759 761 767 768 767 766 764 764 765 758 754 756 756 759 768 770 764 761 760 759 757 754 750 747 743 738 734 732 731 728 724 722 721 721 721 721 721 721 719 717 717 718 718 717 718 722 724 725 725 725 727 731 734 737 741 741 742 745 747 747 747 749 751 753 756 758 760 761 763 764 766 767 768 769 770 771 772 773 774 775 776 776
746 750 756 763 761 758 765 766 764 774 783 779 771 762 756 755 753 753 764 774 770 764 762 762 761 758 753 748 745 740 736 737 740 736 731 728 724 721 721 720 719 718 717 717 716 715 715 716 718 721 724 725 728 730 732 734 734 736 739 739 739 742 744 743 744 746 748 751 753 755 757 759 760 761 763 763 764 765 766 767 768 768 769 770 771 772
745 746 750 759 760 758 764 768 771 782 787 779 770 763 756 754 751 753 770 784 779 769 765 762 762 761 756 752 748 743 742 748 749 742 737 734 729 726 725 724 722 722 722 721 720 718 717 718 719 720 721 724 729 732 735 736 736 736 738 737 738 740 740 740 741 744 747 750 751 753 755 756 757 758 759 760 760 761 762 763 763 764 765 766 767 768
754 755 759 763 764 764 765 769 776 785 783 773 766 760 754 750 750 762 784 792 784 777 773 765 761 759 757 754 750 749 752 757 755 747 741 738 734 731 731 730 730 731 728 725 724 721 718 719 720 721 722 724 726 729 731 732 733 733 735 737 737 737 737 738 741 743 746 748 750 751 752 753 754 754 755 756 757 758 759 759 760 760 761 762 763 764
763 765 767 765 768 773 775 776 780 783 778 769 764 758 751 748 756 776 792 789 780 780 778 770 763 759 756 755 754 755 756 754 751 747 742 740 738 735 734 734 734 735 733 731 730 726 723 721 721 722 723 724 726 727 728 728 729 731 736 740 740 737 736 738 740 741 742 744 745 747 748 750 751 751 752 753 754 755 755 756 757 758 758 759 760 761
769 768 766 765 769 772 773 776 783 785 777 768 763 757 751 758 775 787 786 780 776 777 775 771 768 763 758 756 757 758 757 753 751 748 744 743 742 739 737 736 734 735 735 734 733 730 727 725 723 724 725 725 727 727 727 727 729 732 736 739 739 738 737 737 737 736 737 739 741 743 745 746 747 748 749 750 751 752 753 753 754 755 756 757 757 757
769 771 773 775 774 769 769 779 792 795 781 767 766 766 765 773 785 783 775 773 775 773 770 771 771 768 764 762 761 760 759 756 754 751 748 748 746 743 742 739 738 739 738 735 732 731 730 730 728 727 726 726 727 727 727 728 729 731 733 734 733 733 733 732 732 733 734 737 739 741 742 742 743 745 746 748 749 749 751 752 753 753 754 755 755 755
772 776 782 782 779 780 786 794 797 795 782 770 772 777 776 776 776 773 770 773 774 772 770 770 770 771 770 767 765 763 761 761 760 756 754 752 750 748 746 743 740 740 740 738 736 733 733 734 732 731 731 730 729 729 728 729 729 729 731 731 731 732 732 730 730 732 733 735 736 737 738 740 742 743 745 747 747 747 747 749 750 751 753 753 753 753
779 776 778 780 781 786 792 792 790 786 779 772 773 777 776 774 772 770 771 773 772 771 770 769 769 770 770 770 767 763 761 763 763 761 758 756 754 752 751 748 745 744 745 745 742 739 738 738 737 737 737 737 736 734 731 730 729 727 728 730 732 733 733 733 732 731 731 732 732 733 735 737 741 742 743 743 744 745 747 748 747 749 751 753 753 754
772 768 770 776 781 784 784 783 783 781 778 774 773 775 775 775 774 773 773 773 771 770 770 769 769 768 768 770 768 765 763 762 761 761 761 760 758 757 756 755 754 754 754 753 749 746 745 745 745 745 744 745 744 740 734 732 731 730 729 729 730 730 730 732 733 733 732 733 733 733 734 737 741 742 741 741 741 743 747 750 749 750 751 752 755 758
767 768 772 776 781 785 787 784 781 781 780 777 775 775 774 774 774 774 775 774 772 770 770 770 770 769 769 769 769 768 767 764 762 763 763 762 762 761 760 761 760 759 758 757 754 752 751 750 751 751 751 750 748 742 737 735 735 734 734 733 732 731 729 729 732 734 735 735 734 734 736 739 742 742 742 744 744 745 747 749 750 752 752 751 753 756
769 769 774 778 781 784 787 783 778 780 781 777 776 777 776 775 775 775 775 775 773 772 772 771 771 771 771 771 771 771 770 768 767 766 765 766 766 765 764 765 764 763 761 759 757 756 755 754 754 754 753 751 748 745 742 741 740 739 737 736 736 734 730 729 729 731 733 733 732 733 735 739 741 742 744 747 747 746 748 748 748 751 753 752 752 755
766 768 773 778 782 783 784 781 779 781 781 777 776 778 776 776 776 776 776 777 776 775 775 773 773 773 773 774 774 773 773 772 770 769 769 769 769 769 768 768 767 767 765 763 761 759 758 758 757 756 754 753 751 750 749 749 747 744 742 741 739 735 732 732 732 731 731 731 732 734 737 739 741 742 745 746 746 746 748 749 750 752 754 753 753 754
766 771 771 775 783 788 787 784 782 785 786 781 778 778 777 776 776 776 777 777 777 778 777 776 776 775 775 776 776 775 775 775 773 773 772 772 772 772 772 771 770 769 768 766 765 762 760 759 759 759 758 756 755 754 753 753 751 749 747 745 742 738 736 737 738 737 735 733 733 735 737 739 741 742 744 745 745 746 748 750 751 752 752 752 751 752
772 774 771 775 783 786 783 780 780 784 785 782 778 778 778 776 776 778 778 778 778 778 778 778 778 778 777 777 777 777 777 776 775 775 775 775 776 775 774 774 773 771 770 769 767 765 763 761 760 760 761 761 760 759 758 756 754 753 751 748 745 742 739 740 742 744 742 739 738 738 739 742 744 745 746 746 746 746 748 750 751 751 751 751 751 751